Flag Weather past 2 weeks in Riffa, Bahrain

Now
77 °F

Passing clouds.


Feels Like: 79 °F
Forecast: 74 / 83 °F
Wind: 10 mph from East

Location: Bahrain International Airport

Current Time: Nov 24, 2014 at 11:43:06 AM

Latest Report: Nov 24, 2014 at 11:00 AM


Visibility: N/A

Pressure: 29.92 "Hg

Humidity: 65%

Dew point: 64 °F

Location of RiffaLocation

Historic Weather in Riffa — Graph

°F

Riffa temperature yesterday

Maximum temperature yesterday: 79 °F (at 12:00 PM)
Minimum temperature yesterday: 72 °F (at 10:00 PM)
Average temperature yesterday: 76 °F

Past Weeks' High & Low Weather Summary

 TemperatureHumidityPressure
High86 °F (Nov 22, 12:00 PM)78% (Nov 16, 2:00 AM)30.21 "Hg (Nov 16, 2:00 AM)
Low68 °F (Nov 13, 4:00 AM)28% (Nov 14, 11:00 AM)29.89 "Hg (Nov 23, 3:00 PM)
Average76 °F54%30.05 "Hg
* Reported Nov 9 10:00 AM — Nov 24 10:00 AM, Riffa, Weather by CustomWeather, © 2014

Note: Actual official high and low records may vary slightly from our data, if they occured in-between our weather recording intervals... More about our weather records

Advertising

Riffa weather history for previous 24 hours

 ConditionsComfort  
Time TempWeatherWind HumidityBarometerVisibility
10:00 AM
Nov 24
77 °FPassing clouds.9 mph65%29.95 "HgN/A
9:00 AM75 °FPassing clouds.9 mph69%29.98 "HgN/A
8:00 AM75 °FPassing clouds.5 mph69%29.95 "HgN/A
7:00 AM73 °FSunny.3 mph74%29.95 "Hg10 mi
6:00 AM73 °FClear.6 mph78%29.92 "Hg10 mi
5:00 AM73 °FClear.8 mph78%29.92 "Hg10 mi
4:00 AM72 °FClear.7 mph78%29.89 "Hg10 mi
3:00 AM73 °FClear.7 mph74%29.89 "Hg10 mi
2:00 AM72 °FRain. Clear.2 mph78%29.92 "HgN/A
1:00 AM72 °FClear.5 mph78%29.95 "Hg10 mi
12:00 AM72 °FClear.3 mph78%29.92 "Hg10 mi
11:00 PM
Nov 23
72 °FClear.5 mph78%29.95 "Hg10 mi
10:00 PM72 °FLight rain. Passing clouds.6 mph73%29.98 "HgN/A
9:00 PM77 °FRain. Passing clouds.3 mph69%29.98 "HgN/A
8:00 PM77 °FPassing clouds.6 mph69%29.92 "HgN/A
7:00 PM77 °FClear.8 mph65%29.92 "Hg10 mi
6:00 PM77 °FClear.12 mph65%29.92 "Hg10 mi
5:00 PM77 °FClear.14 mph65%29.89 "Hg10 mi
4:00 PM77 °FPassing clouds.15 mph65%29.89 "HgN/A
3:00 PM77 °FPassing clouds.15 mph69%29.89 "HgN/A
2:00 PM79 °FPassing clouds.14 mph61%29.92 "HgN/A
1:00 PM79 °FSunny.14 mph61%29.92 "Hg10 mi
12:00 PM79 °FSunny.13 mph61%29.95 "Hg10 mi
11:00 AM77 °FPassing clouds.12 mph65%29.98 "HgN/A
Weather by CustomWeather, © 2014

See weather overviewHow to use our weather pages